Regional Weather Roundup
Issued by NWS Sioux Falls, SD

Home | Current Version | Previous Version | Graphics & Text | Print | Product List | Glossary Off
Versions: 1 2 3 4 5 6 7 8 9 10 11 12 13 14 15 16 17 18 19 20 21 22 23 24 25 26 27 28 29 30 31 32 33 34 35 36 37 38 39 40 41 42 43 44 45 46 47 48 49 50

000
ASUS43 KFSD 280010
RWRFSD

WEATHER ROUNDUP FOR SE SOUTH DAKOTA/SW MINNESOTA/NW IOWA
NATIONAL WEATHER SERVICE SIOUX FALLS SD
700 PM CDT MON JUL 27 2015

NOTE: "FAIR" INDICATES FEW OR NO CLOUDS BELOW 12,000 FEET WITH NO
SIGNIFICANT WEATHER AND OR OBSTRUCTIONS TO VISIBILITY.


SDZ038>040-050-052>070-280100-
SOUTHEAST SOUTH DAKOTA

CITY           SKY/WX    TMP DP  RH WIND       PRES   REMARKS
BROOKINGS      SUNNY     82  70  65 SE14      29.82F
CHAMBERLAIN    MOSUNNY   88  73  61 SE14G24   29.67F HX  95
6HR MIN TEMP:  87; 6HR MAX TEMP:  91;

HURON          MOSUNNY   85  75  72 SE14G28   29.71F
6HR MIN TEMP:  85; 6HR MAX TEMP:  90; 6HR PCP: TRACE;

MADISON        FAIR      82  73  74 S16G22    29.81S
MITCHELL       SUNNY     87  76  69 SE16      29.72F HX  97
6HR MIN TEMP:  85; 6HR MAX TEMP:  88;

SIOUX FALLS    MOSUNNY   84  71  65 S16G22    29.79F
6HR MIN TEMP:  83; 6HR MAX TEMP:  86;

WINNER         FAIR      92  67  43 SE18G29   29.67F HX  95
YANKTON        SUNNY     88  72  58 SE16      29.75S
$$

MNZ071-072-080-081-089-090-097-098-280100-
SOUTHWEST MINNESOTA

CITY           SKY/WX    TMP DP  RH WIND       PRES   REMARKS
FAIRMONT       SUNNY     81  64  57 SE16      29.87S
JACKSON        MOSUNNY   82  70  65 SE10      29.88S
LUVERNE        SUNNY     86  72  62 S7        29.83S
MARSHALL       SUNNY     84  68  58 SE14      29.84S
6HR MIN TEMP:  81; 6HR MAX TEMP:  88;

MONTEVIDEO     SUNNY     84  73  70 S10       29.83F
PIPESTONE      SUNNY     82  72  69 SE10      29.84S
REDWOOD FALLS  MOSUNNY   83  71  67 SE16      29.84S
TRACY          SUNNY     82  72  69 SE13      29.85S
WINDOM         SUNNY     82  70  65 SE9       29.86F
WORTHINGTON    SUNNY     82  72  69 SE7       29.85S
$$

IAZ001>003-012>014-020>022-031-032-NEZ013-014-SDZ071-280100-
NORTHWEST IOWA

CITY           SKY/WX    TMP DP  RH WIND       PRES   REMARKS
CHEROKEE       SUNNY     81  73  76 S13       29.84F
DENISON        MOSUNNY   77  70  78 SE16      29.86S
ESTHERVILLE    SUNNY     80  69  69 SE12      29.87S
LE MARS        SUNNY     84  77  79 S15       29.82F
ORANGE CITY    SUNNY     82  73  74 S12       29.83F
SHELDON        SUNNY     82  73  74 S12G21    29.83S
SIOUX CITY     MOSUNNY   85  75  72 SE16G23   29.81F
6HR MIN TEMP:  83; 6HR MAX TEMP:  86;

SPENCER        SUNNY     84  72  67 S13       29.86S
6HR MIN TEMP:  76; 6HR MAX TEMP:  87;

STORM LAKE     SUNNY     79  70  73 S13G23    29.88S
$$

ABBREVIATIONS USED IN REMARKS
   TC - TEMPERATURE IN CELSIUS
  WCI - WIND CHILL INDEX
   HX - HEAT INDEX
  VSB - VISIBILITY



USA.gov is the U.S. government's official web portal to all federal, state and local government web resources and services.